[[{"header":{"parameterUnit":"m.s-1","parameterCategory":1,"la1":30.2991,"la2":30.254,"lo1":-89.0895,"lo2":-89.0444,"dy":0.0017,"dx":0.0017,"nx":28,"ny":28,"refTime":"2024-04-06T21:00:00:Z","depth":0,"parameterNumber":2,"parameterNumberName":"U-component_of_WINDS"},"data":[0,0,0,0,0,0,0,0,0,0,0,0,0,0,0,0,0,0,0,0,0,0,0,0,0,0,0,0,0,0,0,0,0,0,0,0,0,0,0,0,0,0,0,0,0,0,0,0,0,0,0,0,0,0,0,0,0,0,-1.1032,-1.1031,0,-1.1012,-1.1012,-1.1012,-1.1,-1.1,-1.1,-1.1,-1.098,-1.0979,-1.0979,0,0,0,0,0,0,0,0,0,0,0,0,0,-1.1059,-1.1058,-1.1032,-1.1031,-1.1031,-1.1012,-1.1012,-1.1012,-1.1,-1.1,-1.1,-1.1,-1.098,-1.0979,-1.0979,0,0,0,0,0,0,0,0,0,0,0,0,0,-1.1044,-1.1058,-1.1032,-1.1023,-1.1022,-1.1012,-1.1012,-1.1012,-1.1,-1.1,-1.1,-1.0999,-1.098,-1.0979,-1.0979,-1.0976,0,0,-1.0976,-1.0976,0,0,0,0,0,0,0,0,-1.1045,-1.1043,-1.1025,-1.1024,-1.1022,-1.1008,-1.1014,-1.1,-1.1,-1.1008,-1.1,-1.0999,-1.0989,-1.0988,-1.0984,-1.0975,-1.0974,-1.0976,-1.0976,-1.0976,-1.0975,0,0,0,0,0,0,0,-1.1046,-1.1044,-1.1024,-1.1024,-1.1023,-1.102,-1.1018,-1.1011,-1.0999,-1.1007,-1.1007,-1.1004,-1.0989,-1.0985,-1.0984,-1.0974,-1.0976,-1.0976,-1.0975,-1.0975,-1.0962,-1.0962,0,0,0,0,0,0,-1.1048,-1.1045,-1.1025,-1.1023,-1.1034,-1.102,-1.1017,-1.1013,-1.0999,-1.0997,-1.1004,-1.1004,-1.0986,-1.0985,-1.0983,-1.0979,-1.0976,-1.0975,-1.0974,-1.0962,-1.0962,-1.0962,0,0,0,0,0,0,-1.1049,-1.1047,-1.1025,-1.1034,-1.1031,-1.1019,-1.1015,-1.1013,-1.1009,-1.0997,-1.0995,-1.1003,-1.0986,-1.0984,-1.0978,-1.0978,-1.0975,-1.0974,-1.0961,-1.0962,-1.0962,-1.0971,0,0,0,0,0,0,-1.105,-1.1047,-1.1046,-1.1034,-1.103,-1.102,-1.1015,-1.1012,-1.1008,-1.1007,-1.0995,-1.0993,-1.0986,-1.0979,-1.0977,-1.0977,-1.0973,-1.0961,-1.0961,-1.0962,-1.0971,-1.0972,-1.0972,0,0,0,0,0,-1.1051,-1.1049,-1.1046,-1.1043,-1.1029,-1.1021,-1.1019,-1.101,-1.1008,-1.1007,-1.0999,-1.0994,-1.0978,-1.0978,-1.0976,-1.0976,-1.0961,-1.0961,-1.0962,-1.097,-1.0971,-1.0972,0,0,0,0,0,0,-1.1062,-1.1048,-1.1044,-1.1038,-1.1031,-1.1019,-1.1017,-1.1011,-1.1005,-1.1004,-1.0994,-1.0991,-1.0986,-1.098,-1.0981,-1.0973,-1.0969,-1.0969,-1.0977,-1.0978,-1.0978,-1.098,-1.0973,0,0,0,0,0,-1.1063,-1.1058,-1.1046,-1.1042,-1.1039,-1.1028,-1.1024,-1.1019,-1.101,-1.1007,-1.0999,-1.0992,-1.0985,-1.0981,-1.0974,-1.097,-1.0967,-1.0969,-1.097,-1.097,-1.097,-1.0967,-1.0968,-1.0962,-1.0962,-1.0962,0,0,-1.1067,-1.1059,-1.1056,-1.1044,-1.1038,-1.1032,-1.1026,-1.102,-1.1016,-1.1006,-1.1,-1.0994,-1.0985,-1.0979,-1.0977,-1.0975,-1.0971,-1.097,-1.0971,-1.097,-1.0968,-1.0968,-1.0969,-1.0962,-1.0962,-1.0962,0,0,-1.1071,-1.1064,-1.106,-1.1053,-1.1044,-1.1037,-1.1036,-1.1025,-1.102,-1.1014,-1.1006,-1.1001,-1.099,-1.0984,-1.098,-1.0981,-1.0976,-1.0979,-1.0983,-1.098,-1.0981,-1.0981,-1.0982,-1.0982,-1.0979,-1.0979,-1.0979,0,-1.1076,-1.1067,-1.1059,-1.1053,-1.1048,-1.104,-1.1036,-1.103,-1.1019,-1.1015,-1.1013,-1.0999,-1.0992,-1.0986,-1.0986,-1.0983,-1.0981,-1.098,-1.0981,-1.0982,-1.0982,-1.0982,-1.0982,-1.098,-1.0979,-1.0979,-1.0979,0,-1.1075,-1.1069,-1.1067,-1.1056,-1.1051,-1.1047,-1.1037,-1.1033,-1.1028,-1.1021,-1.1015,-1.1006,-1.0998,-1.0996,-1.0991,-1.0988,-1.0987,-1.0983,-1.098,-1.0983,-1.0983,-1.0983,-1.098,-1.098,-1.098,-1.098,0,0,-1.1085,-1.1069,-1.1068,-1.1063,-1.1052,-1.1047,-1.1042,-1.1034,-1.1031,-1.1023,-1.1019,-1.101,-1.1006,-1.1001,-1.0995,-1.0993,-1.0995,-1.0989,-1.0989,-1.0991,-1.0991,-1.0994,-1.0994,-1.0991,-1.0991,-1.0991,-1.0992,0,-1.1086,-1.1077,-1.1069,-1.1063,-1.1057,-1.1048,-1.1044,-1.1037,-1.1031,-1.1025,-1.1018,-1.1012,-1.1008,-1.1005,-1.1002,-1.0995,-1.0995,-1.0995,-1.0987,-1.0987,-1.0989,-1.0994,-1.0997,-1.0999,-1.0992,-1.0992,-1.0992,0,-1.1087,-1.108,-1.1073,-1.1062,-1.1059,-1.1056,-1.1048,-1.1042,-1.1034,-1.1029,-1.1024,-1.1018,-1.1012,-1.1009,-1.1001,-1.1002,-1.0998,-1.0994,-1.0994,-1.0993,-1.099,-1.0993,-1.0999,-1.0999,-1.0992,-1.0992,-1.0992,0,-1.1095,-1.1084,-1.1078,-1.1074,-1.1061,-1.1059,-1.1053,-1.1044,-1.104,-1.1033,-1.103,-1.1022,-1.1018,-1.1012,-1.1004,-1.1003,-1.0998,-1.0994,-1.0994,-1.0994,-1.0993,-1.0993,-1.0998,-1.0991,-1.0991,-1.0991,-1.0991,0,-1.1098,-1.1094,-1.1081,-1.1078,-1.1073,-1.1064,-1.1059,-1.1053,-1.1046,-1.1041,-1.1033,-1.1029,-1.1019,-1.1013,-1.1007,-1.1002,-1.1,-1.0996,-1.0995,-1.0997,-1.0997,-1.0994,-1.0994,-1.0991,-1.0991,-1.0991,-1.0991,0,-1.1106,-1.1097,-1.109,-1.1078,-1.1075,-1.1073,-1.1063,-1.1059,-1.1052,-1.1047,-1.1045,-1.1034,-1.1028,-1.1019,-1.101,-1.1005,-1.1001,-1.0998,-1.1004,-1.1003,-1.1003,-1.1003,-1.1006,-1.1006,-1.0999,-1.0999,-1.0999,0,-1.1108,-1.1105,-1.1093,-1.1089,-1.1084,-1.1078,-1.1073,-1.1064,-1.1059,-1.1049,-1.1047,-1.104,-1.1033,-1.1023,-1.1014,-1.1007,-1.1004,-1.1006,-1.1003,-1.1006,-1.1004,-1.1005,-1.1004,-1.1007,-1.1007,-1.1007,-1.1007,0,-1.1113,-1.1109,-1.1102,-1.1094,-1.1089,-1.1082,-1.1075,-1.1073,-1.1062,-1.1057,-1.105,-1.1045,-1.1035,-1.1028,-1.102,-1.1015,-1.1009,-1.1008,-1.1008,-1.101,-1.1013,-1.1011,-1.1005,-1.1008,-1.1008,-1.1008,-1.1008,-1.1008,-1.1118,-1.1115,-1.1106,-1.1099,-1.1093,-1.1086,-1.1082,-1.1075,-1.1069,-1.106,-1.1055,-1.1048,-1.104,-1.1028,-1.1023,-1.1017,-1.1015,-1.1015,-1.1015,-1.1015,-1.1015,-1.1014,-1.1016,-1.1016,-1.1016,-1.1016,-1.1016,0,-1.1123,-1.1117,-1.111,-1.1101,-1.1095,-1.109,-1.1082,-1.1078,-1.1072,-1.1065,-1.1058,-1.105,-1.1043,-1.1034,-1.1027,-1.1024,-1.1022,-1.1023,-1.1023,-1.1022,-1.1018,-1.1019,-1.1025,-1.1025,-1.1025,-1.1025,-1.1025,-1.1025,-1.1125,-1.1119,-1.1114,-1.1105,-1.1098,-1.1091,-1.1087,-1.1081,-1.1075,-1.1066,-1.106,-1.1055,-1.1047,-1.1039,-1.1032,-1.103,-1.1027,-1.1029,-1.1026,-1.1023,-1.1022,-1.1021,-1.1022,-1.1029,-1.1029,-1.103,-1.103,-1.103]},{"header":{"parameterUnit":"m.s-1","parameterCategory":1,"la1":30.2991,"la2":30.254,"lo1":-89.0895,"lo2":-89.0444,"dy":0.0017,"dx":0.0017,"nx":28,"ny":28,"refTime":"2024-04-06T21:00:00:Z","depth":0,"parameterNumber":3,"parameterNumberName":"V-component_of_WINDS"},"data":[0,0,0,0,0,0,0,0,0,0,0,0,0,0,0,0,0,0,0,0,0,0,0,0,0,0,0,0,0,0,0,0,0,0,0,0,0,0,0,0,0,0,0,0,0,0,0,0,0,0,0,0,0,0,0,0,0,0,4.8791,4.8792,0,4.8872,4.8873,4.8873,4.8828,4.8826,4.8824,4.8822,4.8899,4.8903,4.8907,0,0,0,0,0,0,0,0,0,0,0,0,0,4.8595,4.8599,4.8791,4.8792,4.8793,4.8871,4.8873,4.8874,4.8829,4.8826,4.8823,4.8821,4.8898,4.8902,4.8907,0,0,0,0,0,0,0,0,0,0,0,0,0,4.8678,4.86,4.8791,4.8781,4.878,4.8871,4.8873,4.8874,4.8829,4.8826,4.8823,4.882,4.8896,4.8902,4.8908,4.9013,0,0,4.8927,4.893,0,0,0,0,0,0,0,0,4.8673,4.8685,4.8781,4.8781,4.8781,4.8837,4.8832,4.892,4.883,4.8811,4.8822,4.8818,4.8881,4.8888,4.891,4.9016,4.9019,4.8927,4.8931,4.8934,4.8936,0,0,0,0,0,0,0,4.8668,4.8682,4.8823,4.8782,4.8783,4.877,4.8778,4.8848,4.8863,4.8812,4.8809,4.8819,4.888,4.8904,4.8911,4.9021,4.8927,4.8933,4.8937,4.8939,4.9217,4.9221,0,0,0,0,0,0,4.8663,4.8677,4.882,4.8825,4.8718,4.8777,4.8786,4.8822,4.8862,4.8865,4.8822,4.8817,4.8895,4.8904,4.8914,4.904,4.8934,4.894,4.8943,4.9214,4.9218,4.9222,0,0,0,0,0,0,4.8659,4.8677,4.8817,4.8751,4.8768,4.8783,4.8825,4.8826,4.885,4.887,4.8872,4.8844,4.8893,4.8905,4.8989,4.9042,4.8942,4.8948,4.9209,4.9215,4.922,4.9292,0,0,0,0,0,0,4.8654,4.8675,4.8716,4.8752,4.8771,4.8892,4.8828,4.8829,4.8861,4.8855,4.8891,4.8894,4.8891,4.898,4.8995,4.9049,4.8953,4.9205,4.9212,4.9218,4.9285,4.93,4.9312,0,0,0,0,0,4.8647,4.8732,4.8719,4.8736,4.8823,4.8896,4.8906,4.8903,4.8866,4.8906,4.8919,4.8893,4.9034,4.8989,4.9006,4.9062,4.9201,4.921,4.9218,4.9279,4.9297,4.9312,0,0,0,0,0,0,4.87,4.8736,4.8722,4.8821,4.8856,4.8888,4.8939,4.8921,4.8966,4.8958,4.8951,4.8959,4.9047,4.9062,4.9012,4.9165,4.9111,4.9123,4.9153,4.9169,4.9182,4.9177,4.8958,0,0,0,0,0,4.8724,4.8781,4.8809,4.8894,4.8912,4.8923,4.8954,4.8949,4.8984,4.8998,4.9017,4.905,4.9102,4.9136,4.9185,4.9287,4.9294,4.9334,4.9347,4.9358,4.9369,4.9425,4.9443,4.9249,4.9249,4.9249,0,0,4.8772,4.8799,4.8836,4.8905,4.8932,4.899,4.8935,4.8999,4.9043,4.9007,4.9088,4.9103,4.914,4.9234,4.9276,4.9249,4.9424,4.9369,4.9377,4.9382,4.9435,4.9454,4.947,4.9255,4.9254,4.9253,0,0,4.8891,4.8918,4.8992,4.902,4.9061,4.9068,4.9086,4.9121,4.913,4.9212,4.9187,4.9237,4.9326,4.9354,4.938,4.9511,4.9488,4.9526,4.9596,4.9651,4.9666,4.968,4.9728,4.9745,4.9537,4.9537,4.9537,0,4.8946,4.9036,4.9032,4.9099,4.913,4.9103,4.9177,4.9204,4.9258,4.928,4.925,4.9362,4.9385,4.9486,4.9518,4.9539,4.9559,4.9523,4.9665,4.9678,4.9691,4.9736,4.9754,4.9541,4.9541,4.954,4.954,0,4.9102,4.9164,4.9219,4.9275,4.9312,4.9382,4.9388,4.9426,4.9418,4.9427,4.9511,4.9537,4.9591,4.9614,4.9605,4.9714,4.9697,4.9666,4.9611,4.9714,4.9757,4.9774,4.9548,4.9546,4.9545,4.9544,0,0,4.9256,4.9311,4.9331,4.9357,4.94,4.9448,4.9516,4.9572,4.9605,4.9643,4.97,4.9777,4.975,4.9779,4.9773,4.9821,4.9924,4.9784,4.9785,4.981,5.0047,5.0071,5.0091,4.9909,4.9913,4.9915,5.0044,0,4.9379,4.9503,4.9502,4.9615,4.9673,4.9647,4.9707,4.974,4.9751,4.98,4.9811,4.9866,4.9825,4.9843,4.9889,4.9902,4.9972,4.9892,4.9963,4.9965,4.9956,5.0113,5.0138,5.0258,5.006,5.0063,5.0065,0,4.954,4.9586,4.9706,4.9743,4.9767,4.9821,4.9872,4.992,4.9956,4.9961,4.9994,4.9981,5.005,4.9994,5.0089,5.0035,5.0063,5.0074,5.0078,5.0086,5.0022,5.0125,5.0296,5.0315,5.0091,5.0089,5.0087,0,4.9642,4.9734,4.9819,4.9841,4.9886,4.9925,4.9945,4.9978,5.0012,5.0055,5.0077,5.0127,5.0155,5.0194,5.0194,5.0153,5.0291,5.0234,5.0296,5.0296,5.0327,5.0325,5.0506,5.0343,5.0343,5.0343,5.0342,0,4.9781,4.9855,4.9866,4.9918,5.0,4.9998,5.0079,5.0095,5.0125,5.0179,5.0159,5.0209,5.0206,5.0257,5.0257,5.0336,5.0348,5.0354,5.0353,5.0356,5.0356,5.0376,5.0368,5.0348,5.0347,5.0346,5.0345,0,4.991,4.992,5.001,5.0046,5.0056,5.0116,5.0146,5.0194,5.0204,5.0272,5.0288,5.0302,5.036,5.0365,5.0432,5.0432,5.0529,5.0518,5.0517,5.0516,5.0579,5.0573,5.078,5.0807,5.0625,5.0627,5.0628,0,4.9998,5.0056,5.0098,5.0134,5.0157,5.0214,5.0249,5.0248,5.0285,5.0332,5.0375,5.0432,5.0478,5.0573,5.0588,5.064,5.0631,5.07,5.0639,5.0641,5.0634,5.0631,5.0637,5.0712,5.0714,5.0716,5.0717,0,5.0154,5.0157,5.0209,5.0264,5.0307,5.0349,5.0388,5.0418,5.0421,5.0464,5.0525,5.0561,5.0631,5.0688,5.0739,5.0757,5.0738,5.0736,5.0754,5.0758,5.0756,5.076,5.0551,5.0732,5.073,5.0729,5.0728,5.0728,5.0267,5.0317,5.0356,5.0415,5.0445,5.0482,5.0531,5.0547,5.0599,5.0657,5.0653,5.0721,5.0756,5.0822,5.0845,5.0897,5.0874,5.0898,5.0905,5.0912,5.0919,5.0747,5.0906,5.0906,5.0905,5.0905,5.0904,0,5.0423,5.0447,5.0501,5.0559,5.0605,5.0585,5.0627,5.0667,5.0728,5.0763,5.0809,5.088,5.0936,5.0956,5.101,5.1048,5.104,5.1062,5.106,5.1065,5.0936,5.0917,5.1067,5.1067,5.1067,5.1067,5.1067,5.1067,5.051,5.0595,5.0602,5.0701,5.0724,5.0792,5.0819,5.0853,5.0881,5.0962,5.1009,5.1022,5.1052,5.1108,5.1158,5.1162,5.1183,5.1209,5.121,5.109,5.1073,5.1058,5.1039,5.1213,5.1213,5.1334,5.1335,5.1336]}]]